When you browse on this site, cookies collect data to enhance your experience and personalize the content and advertising you see.
Visit our Privacy Policy to learn more. By continuing to use the site, you agree to this use of cookies and data.
  • In Schweiz
  • Länderverzeichnis
  • Für 7 Tage
  • Wassertemperatur
  • Satellitenkarten
  • Wetterkarte
  • Widgets
  • user-avatar
    Anmelden

    Stündliche Wetter Plenykiv

    Heute, 19 Juli, Freitag

    Zeit Temperatur Niederschläge Wind Luftdruck Luftfeuchtigkeit
    00:00 +13°C° 0 mm 1 m/S 730 mmHg 87%
    01:00 +13°C° 0 mm 1 m/S 730 mmHg 87%
    02:00 +13°C° 0 mm 1 m/S 731 mmHg 87%
    03:00 +13°C° 0 mm 1 m/S 731 mmHg 87%
    04:00 +13°C° 0 mm 1 m/S 731 mmHg 86%
    05:00 +13°C° 0 mm 1 m/S 731 mmHg 86%
    06:00 +14°C° 0 mm 1 m/S 731 mmHg 82%
    07:00 +16°C° 0 mm 1 m/S 732 mmHg 78%
    08:00 +18°C° 0 mm 2 m/S 732 mmHg 74%
    09:00 +19°C° 0 mm 2 m/S 732 mmHg 69%
    10:00 +20°C° 0 mm 2 m/S 732 mmHg 65%
    11:00 +23°C° 0 mm 2 m/S 732 mmHg 60%
    12:00 +23°C° 0 mm 2 m/S 732 mmHg 58%
    13:00 +24°C° 0 mm 2 m/S 732 mmHg 56%
    14:00 +24°C° 0 mm 2 m/S 731 mmHg 54%
    15:00 +24°C° 0 mm 2 m/S 732 mmHg 55%
    16:00 +24°C° 0 mm 2 m/S 732 mmHg 56%
    17:00 +24°C° 0 mm 2 m/S 732 mmHg 58%
    18:00 +21°C° 0 mm 2 m/S 732 mmHg 63%
    19:00 +21°C° 0 mm 1 m/S 732 mmHg 69%
    20:00 +19°C° 0 mm 1 m/S 731 mmHg 75%
    21:00 +18°C° 0 mm 1 m/S 732 mmHg 75%
    22:00 +18°C° 0 mm 1 m/S 732 mmHg 76%
    23:00 +16°C° 0 mm 1 m/S 732 mmHg 76%

    Morgen, 20 Juli, Samstag

    Zeit Temperatur Niederschläge Wind Luftdruck Luftfeuchtigkeit
    00:00 +16°C° 0 mm 2 m/S 732 mmHg 78%
    01:00 +16°C° 0 mm 2 m/S 732 mmHg 80%
    02:00 +15°C° 0 mm 2 m/S 732 mmHg 82%
    03:00 +15°C° 0 mm 2 m/S 732 mmHg 84%
    04:00 +15°C° 0 mm 2 m/S 732 mmHg 86%
    05:00 +14°C° 0 mm 2 m/S 732 mmHg 88%
    06:00 +15°C° 0.2 mm 1 m/S 733 mmHg 87%
    07:00 +16°C° 0.2 mm 1 m/S 733 mmHg 86%
    08:00 +19°C° 0.2 mm 1 m/S 733 mmHg 85%
    09:00 +19°C° 0.1 mm 1 m/S 733 mmHg 83%
    10:00 +20°C° 0.1 mm 1 m/S 733 mmHg 81%
    11:00 +21°C° 0.1 mm 1 m/S 734 mmHg 79%
    12:00 +21°C° 0.6 mm 2 m/S 734 mmHg 75%
    13:00 +24°C° 0.6 mm 3 m/S 733 mmHg 71%
    14:00 +25°C° 0.6 mm 3 m/S 733 mmHg 67%
    15:00 +25°C° 0.5 mm 3 m/S 733 mmHg 68%
    16:00 +25°C° 0.5 mm 3 m/S 733 mmHg 69%
    17:00 +25°C° 0.5 mm 3 m/S 733 mmHg 69%
    18:00 +24°C° 0.5 mm 2 m/S 733 mmHg 75%
    19:00 +21°C° 0.5 mm 2 m/S 733 mmHg 80%
    20:00 +20°C° 0.5 mm 2 m/S 733 mmHg 86%
    21:00 +19°C° 0 mm 2 m/S 733 mmHg 87%
    22:00 +19°C° 0 mm 1 m/S 733 mmHg 88%
    23:00 +19°C° 0 mm 1 m/S 733 mmHg 89%

    übermorgen, 21 Juli, Sonntag

    Zeit Temperatur Niederschläge Wind Luftdruck Luftfeuchtigkeit
    00:00 +18°C° 0 mm 1 m/S 733 mmHg 90%
    01:00 +18°C° 0 mm 1 m/S 733 mmHg 91%
    02:00 +18°C° 0 mm 1 m/S 733 mmHg 92%
    03:00 +16°C° 0 mm 1 m/S 733 mmHg 92%
    04:00 +16°C° 0 mm 1 m/S 733 mmHg 91%
    05:00 +16°C° 0 mm 1 m/S 733 mmHg 91%
    06:00 +19°C° 0 mm 1 m/S 733 mmHg 87%
    07:00 +21°C° 0 mm 1 m/S 733 mmHg 83%
    08:00 +22°C° 0 mm 1 m/S 734 mmHg 78%
    09:00 +24°C° 0 mm 1 m/S 734 mmHg 73%
    10:00 +25°C° 0 mm 1 m/S 734 mmHg 68%
    11:00 +26°C° 0 mm 2 m/S 734 mmHg 62%
    12:00 +27°C° 0 mm 2 m/S 734 mmHg 61%
    13:00 +28°C° 0 mm 2 m/S 734 mmHg 60%
    14:00 +29°C° 0 mm 3 m/S 733 mmHg 58%
    15:00 +29°C° 0 mm 3 m/S 733 mmHg 60%
    16:00 +29°C° 0 mm 3 m/S 733 mmHg 61%
    17:00 +29°C° 0 mm 2 m/S 733 mmHg 62%
    18:00 +26°C° 1.5 mm 4 m/S 733 mmHg 70%
    19:00 +23°C° 1.5 mm 5 m/S 733 mmHg 78%
    20:00 +20°C° 1.5 mm 7 m/S 733 mmHg 86%
    21:00 +19°C° 0 mm 5 m/S 733 mmHg 88%
    22:00 +19°C° 0 mm 3 m/S 733 mmHg 91%
    23:00 +18°C° 0 mm 2 m/S 733 mmHg 93%

    22 Juli, Montag

    Zeit Temperatur Niederschläge Wind Luftdruck Luftfeuchtigkeit
    00:00 +18°C° 0 mm 2 m/S 733 mmHg 93%
    01:00 +18°C° 0 mm 2 m/S 733 mmHg 93%
    02:00 +17°C° 0 mm 2 m/S 733 mmHg 93%
    03:00 +17°C° 0.1 mm 3 m/S 733 mmHg 94%
    04:00 +17°C° 0.1 mm 3 m/S 733 mmHg 95%
    05:00 +17°C° 0.1 mm 4 m/S 733 mmHg 96%
    06:00 +18°C° 0 mm 4 m/S 733 mmHg 94%
    07:00 +19°C° 0 mm 5 m/S 733 mmHg 91%
    08:00 +20°C° 0 mm 6 m/S 734 mmHg 89%
    09:00 +20°C° 0.2 mm 6 m/S 734 mmHg 87%
    10:00 +21°C° 0.2 mm 6 m/S 734 mmHg 85%
    11:00 +21°C° 0.2 mm 6 m/S 734 mmHg 84%
    12:00 +22°C° 0.1 mm 6 m/S 734 mmHg 79%
    13:00 +22°C° 0.1 mm 6 m/S 734 mmHg 75%
    14:00 +23°C° 0.1 mm 6 m/S 734 mmHg 70%
    15:00 +23°C° 0.1 mm 6 m/S 734 mmHg 71%
    16:00 +23°C° 0.1 mm 6 m/S 734 mmHg 71%
    17:00 +22°C° 0.1 mm 6 m/S 734 mmHg 72%
    18:00 +21°C° 0 mm 5 m/S 734 mmHg 77%
    19:00 +20°C° 0 mm 4 m/S 734 mmHg 81%
    20:00 +18°C° 0 mm 4 m/S 734 mmHg 85%
    21:00 +18°C° 0 mm 3 m/S 734 mmHg 86%
    22:00 +17°C° 0 mm 3 m/S 734 mmHg 86%
    23:00 +16°C° 0 mm 3 m/S 734 mmHg 86%

    23 Juli, Dienstag

    Zeit Temperatur Niederschläge Wind Luftdruck Luftfeuchtigkeit
    00:00 +16°C° 0 mm 3 m/S 734 mmHg 87%
    01:00 +16°C° 0 mm 3 m/S 734 mmHg 88%
    02:00 +15°C° 0 mm 4 m/S 734 mmHg 88%
    03:00 +16°C° 0 mm 3 m/S 733 mmHg 90%
    04:00 +14°C° 0 mm 3 m/S 733 mmHg 91%
    05:00 +14°C° 0 mm 3 m/S 733 mmHg 92%
    06:00 +15°C° 0 mm 4 m/S 733 mmHg 89%
    07:00 +15°C° 0 mm 4 m/S 733 mmHg 85%
    08:00 +16°C° 0 mm 5 m/S 733 mmHg 82%
    09:00 +17°C° 0.1 mm 5 m/S 733 mmHg 77%
    10:00 +19°C° 0.1 mm 6 m/S 733 mmHg 73%
    11:00 +20°C° 0.1 mm 6 m/S 733 mmHg 68%
    12:00 +20°C° 0.2 mm 6 m/S 733 mmHg 69%
    13:00 +20°C° 0.2 mm 6 m/S 733 mmHg 70%
    14:00 +21°C° 0.2 mm 6 m/S 733 mmHg 71%
    15:00 +21°C° 0.8 mm 6 m/S 733 mmHg 74%
    16:00 +20°C° 0.8 mm 6 m/S 733 mmHg 77%
    17:00 +20°C° 0.8 mm 5 m/S 732 mmHg 80%
    18:00 +19°C° 0.6 mm 5 m/S 732 mmHg 84%
    19:00 +18°C° 0.6 mm 4 m/S 732 mmHg 87%
    20:00 +17°C° 0.6 mm 3 m/S 732 mmHg 91%
    21:00 +17°C° 0.1 mm 3 m/S 732 mmHg 92%
    22:00 +16°C° 0.1 mm 2 m/S 733 mmHg 93%
    23:00 +16°C° 0.1 mm 2 m/S 733 mmHg 95%

    24 Juli, Mittwoch

    Zeit Temperatur Niederschläge Wind Luftdruck Luftfeuchtigkeit
    00:00 +16°C° 0 mm 2 m/S 733 mmHg 96%
    01:00 +15°C° 0 mm 2 m/S 732 mmHg 96%
    02:00 +15°C° 0 mm 2 m/S 732 mmHg 97%
    03:00 +15°C° 0 mm 2 m/S 732 mmHg 97%
    04:00 +14°C° 0 mm 2 m/S 732 mmHg 97%
    05:00 +13°C° 0 mm 3 m/S 732 mmHg 97%
    06:00 +14°C° 0 mm 3 m/S 733 mmHg 94%
    07:00 +16°C° 0 mm 3 m/S 733 mmHg 91%
    08:00 +18°C° 0 mm 4 m/S 733 mmHg 88%
    09:00 +19°C° 0.1 mm 4 m/S 733 mmHg 81%
    10:00 +20°C° 0.1 mm 5 m/S 733 mmHg 73%
    11:00 +22°C° 0.1 mm 5 m/S 734 mmHg 65%
    12:00 +22°C° 0 mm 6 m/S 733 mmHg 63%
    13:00 +23°C° 0 mm 6 m/S 733 mmHg 61%
    14:00 +23°C° 0 mm 6 m/S 733 mmHg 59%
    15:00 +23°C° 0 mm 6 m/S 733 mmHg 61%
    16:00 +22°C° 0 mm 6 m/S 733 mmHg 62%
    17:00 +22°C° 0 mm 6 m/S 733 mmHg 64%
    18:00 +20°C° 0 mm 5 m/S 733 mmHg 69%
    19:00 +19°C° 0 mm 4 m/S 733 mmHg 74%
    20:00 +17°C° 0 mm 3 m/S 733 mmHg 79%
    21:00 +16°C° 0 mm 3 m/S 733 mmHg 82%
    22:00 +14°C° 0 mm 3 m/S 734 mmHg 84%
    23:00 +13°C° 0 mm 3 m/S 734 mmHg 86%
    Mehr zeigen